#timestamp,LO_Frequency,Hit,StdDev 
1544364015.8,286046999.0,N
1544364035.6,286046999.1,N
1544364055.5,286046999.6,N
1544364075.3,286046998.9,N
1544364095.2,286047001.2,N
1544364115.9,286046998.4,N
1544364135.7,286046998.9,N
1544364155.6,286046999.3,N
1544364175.4,286046999.0,N
1544364195.2,286046999.0,N
1544364215.1,286047000.0,N
1544364216.0,286047000.0,N
1544364235.8,286047002.8,N
1544364255.7,286047000.7,N
1544364275.5,286046999.0,N
1544364295.3,286046998.9,N
1544364315.2,286046999.1,N
1544364335.0,286046999.2,N
1544364335.9,286046999.2,N
1544364355.8,286047000.7,N
1544364375.6,286047000.6,N
1544364395.4,286046998.2,N
1544364415.3,286047001.1,N
1544364435.1,286046999.9,N
1544364455.8,286047000.3,N
1544364475.7,286047000.8,N
1544364495.5,286046999.7,N
1544364515.3,286047000.1,N
1544364535.2,286047000.1,N
1544364555.0,286047000.0,N
1544364555.9,286047000.0,N
1544364575.8,286047000.0,N
1544364595.6,286046999.9,N
1544364615.4,286047000.2,N
1544364635.3,286047000.9,N
1544364655.1,286046998.4,N
1544364675.9,286046998.4,N
1544364695.7,286046998.5,N
1544364715.5,286046998.5,N
1544364735.4,286046998.8,N
1544364755.2,286046999.4,N
1544364775.0,286046998.8,N
1544364775.9,286046998.8,N
1544364795.8,286046998.2,N
1544364815.6,286046998.8,N
1544364835.5,286047001.0,N
1544364855.3,286046998.2,N
1544364875.1,286046999.0,N
1544364895.9,286046996.8,Y
1544364915.7,286046998.8,P
1544364935.5,286046998.9,P
1544364955.4,286046998.5,P
1544364975.2,286046998.7,Y
1544364995.1,286046999.7,P
1544364996.0,286046999.7,N
1544365015.8,286047004.1,P
1544365035.6,286047002.9,N
1544365055.5,286047003.2,N
1544365075.3,286047003.6,N
1544365095.2,286047003.8,N
1544365115.9,286047001.4,N
1544365135.7,286047002.2,N
1544365155.6,286047002.6,N
1544365175.4,286047002.7,N
1544365195.2,286046999.8,N
1544365215.1,286046999.7,N
1544365216.0,286046999.7,N
1544365235.8,286046999.7,N
1544365255.7,286046999.8,N
1544365275.5,286047002.7,N
1544365295.3,286047001.7,N
1544365315.2,286047001.5,N
1544365335.0,286047001.9,N
1544365335.9,286047001.9,N
1544365355.8,286047002.0,N
1544365375.6,286047002.5,N
1544365395.4,286047001.9,N
1544365415.3,286047002.6,N
1544365435.1,286047001.7,N
1544365455.8,286047002.1,N
1544365475.7,286047002.4,N
1544365495.5,286047002.6,N
1544365515.4,286047001.3,N
1544365535.2,286047004.0,Y
1544365555.0,286047000.6,P
1544365575.3,286046998.2,P
1544365595.2,286046998.7,N
1544365615.0,286046999.4,N
1544365615.9,286046999.4,N
1544365635.8,286046999.4,N
1544365655.6,286046998.1,N
1544365675.4,286046998.6,N
1544365695.3,286047001.2,N
1544365715.1,286047001.2,N
1544365735.8,286047000.6,N
1544365755.7,286046999.9,N
1544365775.5,286047000.4,N
1544365795.4,286047000.7,N
1544365815.2,286047001.2,N
1544365835.0,286047000.8,N
1544365835.9,286047000.8,N
1544365855.8,286047001.1,N
1544365875.6,286046998.2,N
1544365895.5,286047000.5,N
1544365915.3,286047000.5,N
1544365935.1,286047000.4,N
1544365955.9,286046998.1,N
1544365975.7,286047000.9,N
1544365995.5,286046998.6,N
1544366015.4,286046998.6,N
1544366035.2,286046999.4,N
1544366055.1,286046996.5,Y
1544366056.0,286046996.5,P
1544366075.8,286046999.0,N
1544366095.6,286046999.4,N
1544366115.5,286046998.5,N
1544366135.3,286046998.6,N
1544366155.1,286046998.2,N
1544366175.9,286046998.2,N
1544366195.7,286047000.9,N
1544366215.6,286047000.5,N
1544366235.4,286047000.3,N
1544366255.2,286047000.5,N
1544366275.1,286046999.9,N
1544366276.0,286046999.9,N
1544366295.8,286047000.1,N
1544366315.7,286047000.1,N
1544366335.5,286047000.2,N
1544366355.3,286047001.9,N
1544366375.2,286047002.2,N
1544366395.9,286047002.7,N
1544366415.7,286047001.6,N
1544366435.6,286047002.6,N
1544366455.4,286047002.6,N
1544366475.2,286047000.0,N
1544366495.1,286047000.1,N
1544366496.0,286047000.1,N
1544366515.8,286046999.8,N
1544366535.7,286046999.7,N
1544366555.5,286047002.0,N
1544366575.3,286047001.5,N
1544366595.2,286047002.7,N
1544366615.0,286047000.7,N
1544366615.9,286047000.7,N
1544366635.8,286047000.0,N
1544366655.6,286047001.2,N
1544366675.4,286046998.7,N
1544366695.3,286047000.8,N
1544366715.1,286047000.1,N
1544366735.8,286047000.7,N
1544366755.7,286047002.8,N
1544366775.5,286047002.4,N
1544366795.4,286047002.8,N
1544366815.2,286047002.3,N
1544366835.0,286047001.9,N
1544366835.9,286047001.9,N
1544366855.8,286047003.9,Y
1544366875.6,286047001.5,P
1544366895.4,286047002.4,P
1544366915.3,286047002.2,P
1544366935.1,286047002.3,Y
1544366955.9,286046998.6,P
1544366975.7,286047001.1,N
1544366995.5,286047001.1,N
1544367015.4,286046996.5,N
1544367035.2,286046998.2,N
1544367055.0,286046999.6,N
1544367055.9,286046999.6,N
1544367075.8,286046997.4,N
1544367095.6,286046997.5,N
1544367115.5,286046996.8,N
1544367135.3,286046999.3,N
1544367155.1,286046997.1,N
1544367175.9,286046996.9,N
1544367195.7,286046997.1,N
1544367215.5,286046997.2,N
1544367235.4,286046997.4,N
1544367255.2,286046999.4,N
1544367275.1,286046999.3,N
1544367276.0,286046999.3,N
1544367295.8,286046999.5,N
1544367315.6,286046996.5,N
1544367335.5,286046997.3,N
1544367355.3,286047001.2,N
1544367375.2,286047001.2,N
1544367395.9,286046998.1,N
1544367415.7,286046998.1,N
1544367435.6,286046998.5,N
1544367455.4,286046999.6,N
1544367475.2,286046999.2,N
1544367495.1,286046999.3,N
1544367496.0,286046999.3,N
1544367515.8,286047001.2,N
1544367535.7,286046998.6,N
1544367555.5,286046998.8,N
1544367575.3,286046998.3,N
1544367595.2,286046998.3,N
